sat.trackr.live / text

‹ back to catalog

AEPEX

NORAD 68506 · 2026-067CU

PAYLOAD ACTIVE UNKNOWN

§ Identity

Operator
Country
US
Launch date
2026-03-30
Launch site
AFWTR
Launch vehicle
Mass (kg)
RCS (m²)

External: N2YO · Heavens-Above · Gunter

§ Orbital elements

Epoch: 2026-09-20T03:27:21.790944Z

Period
94.72 min
Inclination
97.4611°
Eccentricity
0.0004851
Mean motion
15.20257964 rev/d
Perigee alt
501.7 km
Apogee alt
508.4 km
Semi-major
6,883.2 km
B*
2.1958e-4
RAAN
220.4571°
Arg perigee
103.4236°
Mean anomaly
256.7540°
Rev number
2,624

§ Raw data

AEPEX1 68506U 26067CU  26263.14400221  .00004697  00000+0  21958-3 0  99922 68506  97.4611 220.4571 0004851 103.4236 256.7540 15.20257964 26247

JSON: /api/v1/satellites/68506 · /tle

For live sub-satellite position, see the globe view (requires WebGL).

§ Visibility from observer

Set your observer location to see the next 7 days of passes ≥ 10°. The values pass through the URL so the page stays shareable.

No JS? Fill the form by hand. The geolocation button needs JavaScript.

§ Radio — SatNOGS DB

ModeDescriptionDownlinkUplink
OQPSK Mode S - OQPSK 10Mbps - CCSDS 2.405 GHz
OQPSK Mode S - OQPSK 5Mbps - CCSDS 2.405 GHz
GFSK Mode U - GFSK19k2 - AX.25 G3RUH 437.325 MHz
GFSK Mode U - GFSK9k6 - AX.25 G3RUH 437.325 MHz

4 transmitters · refreshed weekly from db.satnogs.org